Location: Saint-Hippolyte
(43.6394°N, 4.7559°E)
Time: 14:57:02
(UTC+00:00)

Meteor 2-10 Rocket - Pass Details

Date: 24 October 2020
Orbit: 733 x 885 km, 81.2° (Epoch: 23 November)

Event Time Altitude Azimuth Distance (km) Brightness Sun altitude
Rises 18:07:01 0° 168° (SSE) 3,345 6.7 -15.9°
Reaches altitude 10° 18:09:34 10° 161° (SSE) 2,393 5.9 -16.3°
Maximum altitude 18:14:34 40° 93° (E) 1,147 3.9 -17.2°
Drops below altitude 10° 18:19:24 10° 25° (NNE) 2,318 5.7 -18.1°
Sets 18:21:50 0° 18° (NNE) 3,228 6.6 -18.5°
